FW9733 Weather Reports


Display with metric or nautical units.
time (UTC)temp
F
wind
direction
speed
MPH
gust
MPH
rain 1hr
in
rain 24hr
in
rain mn
in
humidity
%
barometer
mb
20260502151554 49 0 0.0 0.0 0.00 0.00 0.00 54 1021.9
20260502123051 32 0 0.0 0.0 0.00 0.00 0.00 71 1021.1
20260502121551 32 0 0.0 1.0 0.00 0.00 0.00 71 1021.0
20260502114548 33 0 0.0 0.0 0.00 0.00 0.00 70 1021.1
20260502113053 33 0 0.0 1.0 0.00 0.00 0.00 70 1021.1
20260502111545 33 0 0.0 0.0 0.00 0.00 0.00 69 1021.2
20260502110049 33 0 0.0 0.0 0.00 0.00 0.00 68 1021.1
20260502104549 34 0 0.0 0.0 0.00 0.00 0.00 69 1021.1
20260502103101 34 0 0.0 0.0 0.00 0.00 0.00 69 1021.1
20260502101600 34 0 0.0 0.0 0.00 0.00 0.00 68 1021.2
20260502100108 34 0 0.0 0.0 0.00 0.00 0.00 68 1021.3
20260502070052 38 0 0.0 1.0 0.00 0.00 0.00 64 1022.1
20260502064555 38 0 0.0 0.0 0.00 0.00 0.00 65 1022.0
20260502063046 38 0 0.0 0.0 0.00 0.00 0.00 64 1022.1
20260502061558 39 0 0.0 0.0 0.00 0.00 0.00 61 1022.1
20260502060049 39 0 0.0 0.0 0.00 0.00 0.00 60 1021.9
20260502054544 40 0 0.0 0.0 0.00 0.00 0.00 61 1022.1
20260502053057 40 0 0.0 0.0 0.00 0.00 0.00 59 1022.2
20260502051549 41 0 0.0 0.0 0.00 0.00 0.00 61 1022.1
20260502050049 41 0 0.0 0.0 0.00 0.00 0.00 61 1022.0
20260502044545 42 0 0.0 0.0 0.00 0.00 0.00 58 1022.0
20260502043055 43 0 0.0 0.0 0.00 0.00 0.00 61 1022.0
20260502041550 44 0 0.0 0.0 0.00 0.00 0.00 63 1021.7
20260502040054 45 0 0.0 1.0 0.00 0.00 0.00 61 1021.4
20260502034547 46 0 0.0 0.0 0.00 0.00 0.00 60 1021.2
20260502033048 47 0 0.0 0.0 0.00 0.00 0.00 60 1021.1
20260502031549 48 0 0.0 0.0 0.00 0.00 0.00 58 1020.8
20260502030046 49 0 0.0 1.0 0.00 0.00 0.00 57 1020.6
20260502024558 51 0 0.0 1.0 0.00 0.00 0.00 54 1020.4
20260502023051 53 0 0.0 1.0 0.00 0.00 0.00 53 1020.4
20260502021551 54 352 0.0 1.0 0.00 0.00 0.00 49 1020.4
20260502020052 56 0 0.0 0.0 0.00 0.00 0.00 46 1020.1
20260502014545 58 0 0.0 1.0 0.00 0.00 0.00 42 1019.9
20260502013045 59 0 0.0 3.0 0.00 0.00 0.00 41 1020.1
20260502011550 61 158 0.0 3.0 0.00 0.00 0.00 38 1020.0
20260502010057 61 0 0.0 3.0 0.00 0.00 0.00 39 1019.9
20260502004548 61 167 1.0 4.0 0.00 0.00 0.00 39 1019.9
20260502003047 59 140 0.0 1.0 0.00 0.00 0.00 42 1019.9
20260502001544 60 0 0.0 1.0 0.00 0.00 0.00 42 1019.9
20260502000045 61 0 0.0 3.0 0.00 0.00 0.00 41 1019.8
20260501234551 61 0 0.0 1.0 0.00 0.00 0.00 41 1019.8
20260501233054 62 205 0.0 1.0 0.00 0.00 0.00 40 1019.8
20260501231608 63 169 0.0 5.0 0.00 0.00 0.00 42 1019.6
20260501224558 64 288 2.0 8.0 0.00 0.00 0.00 36 1020.0
20260501223102 65 27 1.0 3.0 0.00 0.00 0.00 31 1020.1
20260501221554 65 135 2.0 8.0 0.00 0.00 0.00 24 1020.2
20260501220051 66 345 1.0 4.0 0.00 0.00 0.00 25 1020.4
20260501214555 65 248 1.0 7.0 0.00 0.00 0.00 25 1020.4
20260501213056 66 131 1.0 5.0 0.00 0.00 0.00 24 1020.5
20260501211606 66 1 2.0 7.0 0.00 0.00 0.00 25 1020.6
20260501210054 67 335 1.0 5.0 0.00 0.00 0.00 24 1020.6
20260501204617 67 255 2.0 6.0 0.00 0.00 0.00 24 1020.6
20260501203049 67 234 2.0 10.0 0.00 0.00 0.00 25 1020.6
20260501201552 66 187 1.0 5.0 0.00 0.00 0.00 27 1020.6
20260501200050 65 214 2.0 7.0 0.00 0.00 0.00 27 1020.7
20260501194558 66 0 3.0 8.0 0.00 0.00 0.00 26 1020.8
20260501193046 66 302 1.0 9.0 0.00 0.00 0.00 27 1021.0
20260501191550 63 0 1.0 6.0 0.00 0.00 0.00 30 1021.0
20260501190046 66 284 1.0 5.0 0.00 0.00 0.00 27 1021.1
20260501184547 65 113 1.0 5.0 0.00 0.00 0.00 30 1021.2
20260501183047 65 84 2.0 8.0 0.00 0.00 0.00 27 1021.3
20260501181551 64 40 1.0 7.0 0.00 0.00 0.00 28 1021.3
20260501174546 64 108 1.0 4.0 0.00 0.00 0.00 27 1021.5
20260501173055 64 311 1.0 4.0 0.00 0.00 0.00 28 1021.4
20260501171552 62 282 2.0 8.0 0.00 0.00 0.00 31 1021.4
20260501170052 62 241 1.0 5.0 0.00 0.00 0.00 31 1021.4
20260501164555 61 333 0.0 6.0 0.00 0.00 0.00 32 1021.5
20260501163050 61 238 0.0 4.0 0.00 0.00 0.00 33 1021.5
20260501161549 59 252 2.0 7.0 0.00 0.00 0.00 38 1021.2
20260501160055 59 331 1.0 4.0 0.00 0.00 0.00 38 1021.1
20260501154547 58 354 1.0 4.0 0.00 0.00 0.00 40 1021.1